[[{"header":{"parameterUnit":"m.s-1","parameterCategory":1,"la1":30.2991,"la2":30.254,"lo1":-89.0895,"lo2":-89.0444,"dy":0.0017,"dx":0.0017,"nx":28,"ny":28,"refTime":"2025-12-28T09:00:00:Z","depth":0,"parameterNumber":2,"parameterNumberName":"U-component_of_WINDS"},"data":[0,0,0,0,0,0,0,0,0,0,0,0,0,0,0,0,0,0,0,0,0,0,0,0,0,0,0,0,0,0,0,0,0,0,0,0,0,0,0,0,0,0,0,0,0,0,0,0,0,0,0,0,0,0,0,0,0,0,-1.3475,-1.3475,0,-1.3496,-1.3496,-1.3496,-1.3503,-1.3502,-1.3502,-1.3502,-1.3521,-1.3522,-1.3523,0,0,0,0,0,0,0,0,0,0,0,0,0,-1.3439,-1.344,-1.3475,-1.3475,-1.3476,-1.3496,-1.3496,-1.3496,-1.3503,-1.3502,-1.3502,-1.3502,-1.3521,-1.3522,-1.3523,0,0,0,0,0,0,0,0,0,0,0,0,0,-1.3457,-1.344,-1.3475,-1.3481,-1.3482,-1.3496,-1.3496,-1.3496,-1.3503,-1.3502,-1.3502,-1.3502,-1.3521,-1.3522,-1.3523,-1.3531,0,0,-1.3526,-1.3526,0,0,0,0,0,0,0,0,-1.3456,-1.3458,-1.348,-1.3481,-1.3482,-1.3496,-1.349,-1.3508,-1.3503,-1.3495,-1.3502,-1.3502,-1.3513,-1.3515,-1.3519,-1.3532,-1.3533,-1.3526,-1.3526,-1.3527,-1.3527,0,0,0,0,0,0,0,-1.3455,-1.3457,-1.3483,-1.348,-1.3481,-1.3482,-1.3485,-1.3494,-1.3504,-1.3495,-1.3496,-1.3498,-1.3514,-1.3518,-1.3519,-1.3533,-1.3526,-1.3526,-1.3527,-1.3527,-1.3554,-1.3554,0,0,0,0,0,0,-1.3453,-1.3456,-1.3482,-1.3484,-1.3468,-1.3483,-1.3486,-1.3492,-1.3504,-1.3506,-1.3498,-1.3499,-1.3516,-1.3518,-1.352,-1.353,-1.3527,-1.3527,-1.3528,-1.3554,-1.3554,-1.3554,0,0,0,0,0,0,-1.3452,-1.3455,-1.3482,-1.347,-1.3474,-1.3484,-1.3491,-1.3492,-1.3497,-1.3507,-1.3508,-1.3501,-1.3516,-1.3519,-1.3528,-1.3531,-1.3528,-1.3529,-1.3554,-1.3554,-1.3554,-1.3551,0,0,0,0,0,0,-1.3451,-1.3455,-1.3458,-1.347,-1.3474,-1.349,-1.3491,-1.3493,-1.3498,-1.3499,-1.351,-1.3511,-1.3516,-1.3527,-1.3529,-1.3532,-1.3529,-1.3553,-1.3554,-1.3554,-1.3551,-1.3552,-1.3552,0,0,0,0,0,-1.3449,-1.3456,-1.3458,-1.3461,-1.3479,-1.349,-1.3493,-1.3499,-1.3499,-1.3502,-1.3509,-1.3511,-1.3531,-1.3528,-1.3531,-1.3534,-1.3553,-1.3554,-1.3554,-1.3551,-1.3551,-1.3552,0,0,0,0,0,0,-1.3443,-1.3458,-1.346,-1.3471,-1.348,-1.3491,-1.3496,-1.3499,-1.3507,-1.3507,-1.3514,-1.3517,-1.3526,-1.3531,-1.3528,-1.3543,-1.3542,-1.3543,-1.3539,-1.3539,-1.354,-1.3538,-1.353,0,0,0,0,0,-1.3444,-1.3452,-1.3464,-1.3472,-1.3477,-1.3486,-1.3491,-1.3495,-1.3504,-1.3507,-1.3514,-1.3522,-1.353,-1.3535,-1.3543,-1.3552,-1.3554,-1.3556,-1.3556,-1.3556,-1.3557,-1.3562,-1.3563,-1.3555,-1.3555,-1.3555,0,0,-1.3443,-1.3452,-1.3457,-1.3471,-1.3478,-1.3487,-1.3488,-1.3497,-1.3503,-1.3508,-1.3518,-1.3523,-1.3532,-1.3542,-1.3547,-1.3546,-1.3559,-1.3557,-1.3557,-1.3557,-1.3562,-1.3563,-1.3564,-1.3556,-1.3556,-1.3556,0,0,-1.3448,-1.3455,-1.3463,-1.3471,-1.3481,-1.3487,-1.3489,-1.3501,-1.3505,-1.3515,-1.3519,-1.3526,-1.3539,-1.3546,-1.3551,-1.3558,-1.356,-1.356,-1.3561,-1.3566,-1.3567,-1.3567,-1.3569,-1.357,-1.3561,-1.3561,-1.3561,0,-1.3446,-1.3459,-1.3467,-1.3475,-1.3481,-1.3487,-1.3495,-1.3501,-1.3514,-1.3518,-1.3517,-1.3535,-1.3541,-1.3552,-1.3554,-1.3558,-1.356,-1.3559,-1.3566,-1.3567,-1.3567,-1.357,-1.357,-1.356,-1.356,-1.356,-1.356,0,-1.3457,-1.3466,-1.3471,-1.3483,-1.349,-1.3498,-1.3506,-1.3512,-1.3516,-1.3522,-1.3532,-1.354,-1.3549,-1.3552,-1.3556,-1.3564,-1.3564,-1.3565,-1.3564,-1.3568,-1.357,-1.3571,-1.356,-1.356,-1.356,-1.356,0,0,-1.3457,-1.3475,-1.3476,-1.3482,-1.3495,-1.3501,-1.351,-1.352,-1.3524,-1.3533,-1.354,-1.3551,-1.3552,-1.3558,-1.3562,-1.3567,-1.3571,-1.3567,-1.3567,-1.3568,-1.3581,-1.358,-1.3581,-1.3573,-1.3573,-1.3574,-1.358,0,-1.3463,-1.3479,-1.3486,-1.3498,-1.3506,-1.3512,-1.3519,-1.3527,-1.3533,-1.354,-1.3546,-1.3554,-1.3555,-1.3559,-1.3564,-1.357,-1.3574,-1.357,-1.3579,-1.3579,-1.3576,-1.3582,-1.3581,-1.3586,-1.3581,-1.3581,-1.3581,0,-1.3472,-1.3481,-1.3494,-1.3506,-1.3509,-1.3516,-1.3526,-1.3533,-1.3542,-1.3546,-1.3552,-1.3557,-1.3565,-1.3564,-1.3575,-1.3572,-1.3576,-1.358,-1.3581,-1.3581,-1.358,-1.3583,-1.3588,-1.3589,-1.3583,-1.3582,-1.3582,0,-1.3471,-1.3486,-1.3496,-1.3501,-1.3515,-1.3519,-1.3525,-1.3534,-1.354,-1.3548,-1.3552,-1.3561,-1.3566,-1.3573,-1.3579,-1.3578,-1.359,-1.3589,-1.3593,-1.3592,-1.3595,-1.3594,-1.3601,-1.3598,-1.3598,-1.3598,-1.3598,0,-1.3476,-1.3484,-1.3496,-1.3502,-1.3511,-1.3519,-1.3527,-1.3533,-1.3542,-1.3549,-1.3554,-1.356,-1.3568,-1.3576,-1.3581,-1.3589,-1.3591,-1.3594,-1.3595,-1.3594,-1.3593,-1.3596,-1.3596,-1.3598,-1.3598,-1.3598,-1.3598,0,-1.3476,-1.3485,-1.3496,-1.3509,-1.3512,-1.3518,-1.3528,-1.3534,-1.354,-1.3549,-1.3551,-1.3561,-1.357,-1.3577,-1.3588,-1.3591,-1.36,-1.3602,-1.3597,-1.3598,-1.3601,-1.36,-1.3609,-1.3611,-1.3607,-1.3607,-1.3607,0,-1.3479,-1.3485,-1.3499,-1.3504,-1.351,-1.3519,-1.3525,-1.3533,-1.3539,-1.355,-1.3554,-1.3564,-1.3572,-1.3585,-1.3593,-1.3601,-1.3603,-1.3605,-1.3604,-1.3602,-1.3603,-1.3602,-1.3603,-1.3605,-1.3605,-1.3605,-1.3605,0,-1.3483,-1.3487,-1.3496,-1.3507,-1.3514,-1.3522,-1.3531,-1.3535,-1.3544,-1.355,-1.356,-1.3566,-1.3578,-1.3587,-1.3596,-1.3602,-1.3605,-1.3606,-1.3607,-1.3605,-1.3602,-1.3604,-1.3597,-1.3605,-1.3605,-1.3605,-1.3605,-1.3605,-1.3485,-1.3491,-1.3501,-1.3511,-1.3518,-1.3526,-1.3532,-1.3539,-1.3548,-1.3559,-1.3563,-1.3572,-1.3581,-1.3594,-1.36,-1.3607,-1.3607,-1.3609,-1.3609,-1.361,-1.3609,-1.3601,-1.3609,-1.3609,-1.3609,-1.3609,-1.3609,0,-1.3489,-1.3496,-1.3505,-1.3517,-1.3525,-1.3528,-1.3537,-1.3543,-1.3552,-1.356,-1.3568,-1.3579,-1.3588,-1.3596,-1.3605,-1.3609,-1.3611,-1.3611,-1.3611,-1.3612,-1.3609,-1.3607,-1.361,-1.361,-1.361,-1.361,-1.361,-1.361,-1.3492,-1.3502,-1.3508,-1.3521,-1.3528,-1.3538,-1.3543,-1.3551,-1.3557,-1.3569,-1.3577,-1.3583,-1.3591,-1.3601,-1.3609,-1.3611,-1.3614,-1.3614,-1.3616,-1.3613,-1.3613,-1.3612,-1.361,-1.3615,-1.3615,-1.3619,-1.3619,-1.362]},{"header":{"parameterUnit":"m.s-1","parameterCategory":1,"la1":30.2991,"la2":30.254,"lo1":-89.0895,"lo2":-89.0444,"dy":0.0017,"dx":0.0017,"nx":28,"ny":28,"refTime":"2025-12-28T09:00:00:Z","depth":0,"parameterNumber":3,"parameterNumberName":"V-component_of_WINDS"},"data":[0,0,0,0,0,0,0,0,0,0,0,0,0,0,0,0,0,0,0,0,0,0,0,0,0,0,0,0,0,0,0,0,0,0,0,0,0,0,0,0,0,0,0,0,0,0,0,0,0,0,0,0,0,0,0,0,0,0,2.2026,2.2028,0,2.2198,2.2199,2.2201,2.2271,2.2271,2.2271,2.227,2.2443,2.2447,2.2452,0,0,0,0,0,0,0,0,0,0,0,0,0,2.1759,2.1763,2.2026,2.2028,2.203,2.2197,2.22,2.2202,2.2271,2.2271,2.2271,2.227,2.2441,2.2447,2.2453,0,0,0,0,0,0,0,0,0,0,0,0,0,2.1897,2.1765,2.2026,2.2085,2.2092,2.2197,2.22,2.2203,2.2272,2.2271,2.227,2.227,2.2439,2.2446,2.2454,2.2511,0,0,2.2476,2.2479,0,0,0,0,0,0,0,0,2.1889,2.1907,2.2074,2.2081,2.2089,2.2213,2.2169,2.2306,2.2272,2.2203,2.227,2.227,2.2366,2.238,2.2413,2.2519,2.2526,2.2477,2.2481,2.2485,2.2487,0,0,0,0,0,0,0,2.1879,2.19,2.2094,2.2077,2.2086,2.2103,2.2122,2.2195,2.2286,2.2209,2.2215,2.2234,2.237,2.2406,2.2418,2.2529,2.2477,2.2483,2.2488,2.2491,2.2694,2.2695,0,0,0,0,0,0,2.186,2.1891,2.2088,2.2099,2.1986,2.2109,2.213,2.2173,2.2285,2.2302,2.2235,2.2237,2.2393,2.2409,2.2424,2.2501,2.2484,2.2491,2.2496,2.2693,2.2694,2.2695,0,0,0,0,0,0,2.1854,2.1877,2.2081,2.1997,2.2024,2.2114,2.2162,2.2177,2.2213,2.2304,2.2321,2.2254,2.2393,2.2413,2.249,2.2507,2.2495,2.2501,2.2692,2.2693,2.2694,2.2652,0,0,0,0,0,0,2.1846,2.1874,2.1897,2.1997,2.2028,2.2144,2.2163,2.2181,2.2226,2.223,2.2327,2.2342,2.2395,2.2478,2.2497,2.2517,2.2507,2.269,2.2692,2.2694,2.2652,2.2652,2.2652,0,0,0,0,0,2.1836,2.1876,2.1897,2.1921,2.2058,2.2145,2.2163,2.2223,2.2227,2.225,2.231,2.2339,2.2502,2.2485,2.2507,2.253,2.269,2.2692,2.2694,2.2653,2.2652,2.2652,0,0,0,0,0,0,2.1774,2.189,2.1915,2.1989,2.2057,2.2157,2.2188,2.222,2.2287,2.2289,2.236,2.2381,2.2452,2.2499,2.2477,2.2593,2.2598,2.2605,2.256,2.256,2.256,2.2547,2.2513,0,0,0,0,0,2.1769,2.183,2.1929,2.1984,2.2017,2.2097,2.2137,2.2178,2.225,2.2279,2.2344,2.2413,2.248,2.2523,2.2589,2.266,2.2683,2.2687,2.2686,2.2686,2.269,2.2734,2.2738,2.2702,2.2702,2.2702,0,0,2.1759,2.183,2.1864,2.1974,2.2031,2.2093,2.212,2.2184,2.2231,2.2288,2.2365,2.2416,2.2497,2.2572,2.2608,2.2613,2.2706,2.2688,2.2687,2.2692,2.2737,2.274,2.2743,2.2703,2.2703,2.2703,0,0,2.1773,2.1832,2.1886,2.1945,2.2032,2.2085,2.2098,2.2195,2.2231,2.231,2.2355,2.2412,2.2526,2.2583,2.2627,2.2668,2.2698,2.2687,2.2685,2.2727,2.273,2.2733,2.2749,2.2754,2.2692,2.2692,2.2692,0,2.1749,2.1845,2.191,2.1973,2.202,2.2078,2.2134,2.2187,2.2291,2.2323,2.2328,2.2474,2.2533,2.2623,2.2634,2.2667,2.2685,2.2676,2.2724,2.2728,2.2731,2.2748,2.2753,2.269,2.269,2.269,2.269,0,2.1812,2.1878,2.1911,2.2013,2.2065,2.2123,2.2199,2.2243,2.2281,2.2334,2.2415,2.2488,2.2572,2.2597,2.2632,2.2693,2.2694,2.2711,2.2718,2.2732,2.2749,2.2755,2.2687,2.2688,2.2689,2.2689,0,0,2.1788,2.1929,2.194,2.1988,2.2091,2.2143,2.2206,2.229,2.2328,2.2399,2.2454,2.2551,2.2569,2.2619,2.2662,2.2699,2.2729,2.2712,2.2715,2.2713,2.2803,2.279,2.2796,2.275,2.2752,2.2753,2.2797,0,2.1817,2.1932,2.1995,2.2084,2.2147,2.2204,2.226,2.2329,2.2381,2.2442,2.25,2.2568,2.2585,2.2616,2.2655,2.2717,2.2748,2.2715,2.2803,2.2805,2.2781,2.2805,2.2791,2.2828,2.2803,2.2804,2.2805,0,2.1864,2.1937,2.2033,2.2132,2.2161,2.2209,2.2293,2.2351,2.2432,2.2468,2.2526,2.257,2.2639,2.2642,2.2739,2.2715,2.2756,2.2792,2.2795,2.2805,2.2806,2.2816,2.2841,2.2847,2.2816,2.2815,2.2814,0,2.184,2.1961,2.2036,2.2075,2.2192,2.2225,2.2275,2.2356,2.2403,2.2477,2.2509,2.2589,2.2633,2.2694,2.2759,2.2754,2.2851,2.2858,2.2883,2.2882,2.29,2.2898,2.2932,2.2925,2.2925,2.2925,2.2925,0,2.1865,2.1921,2.2026,2.2072,2.2138,2.221,2.2274,2.2329,2.2401,2.2459,2.2513,2.2566,2.2648,2.2712,2.2763,2.2838,2.2856,2.2888,2.2901,2.2883,2.2879,2.291,2.2909,2.2926,2.2926,2.2926,2.2925,0,2.1847,2.192,2.2005,2.211,2.2138,2.2182,2.2272,2.2319,2.2376,2.2449,2.247,2.2558,2.2636,2.2708,2.2811,2.2846,2.2922,2.2937,2.2894,2.2902,2.2923,2.292,2.2979,2.2991,2.2974,2.2974,2.2974,0,2.1859,2.1904,2.2015,2.2059,2.2109,2.2177,2.2227,2.2301,2.2351,2.2449,2.2485,2.2568,2.2638,2.276,2.2834,2.2914,2.2933,2.2948,2.2945,2.2927,2.2934,2.2931,2.2937,2.2946,2.2946,2.2946,2.2946,0,2.1872,2.1906,2.1977,2.2061,2.212,2.2189,2.226,2.2292,2.238,2.2434,2.2516,2.257,2.2678,2.276,2.2849,2.2901,2.2939,2.2947,2.2957,2.294,2.2913,2.293,2.2893,2.2945,2.2945,2.2945,2.2945,2.2945,2.187,2.1915,2.2001,2.2078,2.214,2.2206,2.2257,2.2321,2.2391,2.2485,2.2525,2.2608,2.2692,2.2816,2.2868,2.2935,2.2942,2.2956,2.296,2.2963,2.296,2.2903,2.2951,2.2951,2.2951,2.2952,2.2952,0,2.1887,2.1946,2.2017,2.2116,2.2178,2.221,2.2292,2.2341,2.2414,2.2489,2.2558,2.2654,2.2735,2.2816,2.2902,2.294,2.2959,2.296,2.2958,2.297,2.2948,2.2931,2.2943,2.2943,2.2943,2.2943,2.2943,2.2943,2.1903,2.1981,2.2026,2.2136,2.2195,2.2279,2.2323,2.2385,2.2445,2.255,2.2619,2.2672,2.275,2.2843,2.2919,2.2941,2.297,2.2966,2.2992,2.2971,2.2971,2.2971,2.2955,2.2972,2.2972,2.3009,2.3009,2.3009]}]]